Year,Month,Day,Hour,Minute,Value (Times are PST for temperature in C)
2014,11,13,00,00,-4.00
2014,11,13,00,01,-4.00
2014,11,13,00,02,-4.00
2014,11,13,00,03,-3.90
2014,11,13,00,04,-3.90
2014,11,13,00,05,-3.90
2014,11,13,00,06,-3.90
2014,11,13,00,07,-3.90
2014,11,13,00,08,-3.90
2014,11,13,00,09,-3.80
2014,11,13,00,10,-3.80
2014,11,13,00,11,-3.80
2014,11,13,00,12,-3.80
2014,11,13,00,13,-3.80
2014,11,13,00,14,-3.80
2014,11,13,00,15,-3.80
2014,11,13,00,16,-3.80
2014,11,13,00,17,-3.80
2014,11,13,00,18,-3.80
2014,11,13,00,19,-3.80
2014,11,13,00,20,-3.90
2014,11,13,00,21,-3.90
2014,11,13,00,22,-3.90
2014,11,13,00,23,-3.90
2014,11,13,00,24,-3.90
2014,11,13,00,25,-3.90
2014,11,13,00,26,-4.00
2014,11,13,00,27,-4.00
2014,11,13,00,28,-4.00
2014,11,13,00,29,-4.10
2014,11,13,00,30,-4.10
2014,11,13,00,31,-4.10
2014,11,13,00,32,-4.10
2014,11,13,00,33,-4.10
2014,11,13,00,34,-4.10
2014,11,13,00,35,-4.10
2014,11,13,00,36,-4.10
2014,11,13,00,37,-4.10
2014,11,13,00,38,-4.10
2014,11,13,00,39,-4.10
2014,11,13,00,40,-4.10
2014,11,13,00,41,-4.10
2014,11,13,00,42,-4.10
2014,11,13,00,43,-4.10
2014,11,13,00,44,-4.10
2014,11,13,00,45,-4.10
2014,11,13,00,46,-4.10
2014,11,13,00,47,-4.10
2014,11,13,00,48,-4.10
2014,11,13,00,49,-4.10
2014,11,13,00,50,-4.10
2014,11,13,00,51,-4.10
2014,11,13,00,52,-4.10
2014,11,13,00,53,-4.10
2014,11,13,00,54,-4.10
2014,11,13,00,55,-4.20
2014,11,13,00,56,-4.20
2014,11,13,00,57,-4.20
2014,11,13,00,58,-4.20
2014,11,13,00,59,-4.20
2014,11,13,01,00,-4.20
2014,11,13,01,01,-4.20
2014,11,13,01,02,-4.20
2014,11,13,01,03,-4.20
2014,11,13,01,04,-4.20
2014,11,13,01,05,-4.20
2014,11,13,01,06,-4.20
2014,11,13,01,07,-4.20
2014,11,13,01,08,-4.30
2014,11,13,01,09,-4.30
2014,11,13,01,10,-4.30
2014,11,13,01,11,-4.30
2014,11,13,01,12,-4.20
2014,11,13,01,13,-4.30
2014,11,13,01,14,-4.30
2014,11,13,01,15,-4.30
2014,11,13,01,16,-4.30
2014,11,13,01,17,-4.30
2014,11,13,01,18,-4.30
2014,11,13,01,19,-4.30
2014,11,13,01,20,-4.30
2014,11,13,01,21,-4.30
2014,11,13,01,22,-4.30
2014,11,13,01,23,-4.30
2014,11,13,01,24,-4.30
2014,11,13,01,25,-4.40
2014,11,13,01,26,-4.40
2014,11,13,01,27,-4.40
2014,11,13,01,28,-4.40
2014,11,13,01,29,-4.30
2014,11,13,01,30,-4.30
2014,11,13,01,31,-4.30
2014,11,13,01,32,-4.30
2014,11,13,01,33,-4.30
2014,11,13,01,34,-4.40
2014,11,13,01,35,-4.40
2014,11,13,01,36,-4.40
2014,11,13,01,37,-4.40
2014,11,13,01,38,-4.40
2014,11,13,01,39,-4.40
2014,11,13,01,40,-4.40
2014,11,13,01,41,-4.40
2014,11,13,01,42,-4.40
2014,11,13,01,43,-4.40
2014,11,13,01,44,-4.40
2014,11,13,01,45,-4.40
2014,11,13,01,46,-4.40
2014,11,13,01,47,-4.40
2014,11,13,01,48,-4.40
2014,11,13,01,49,-4.40
2014,11,13,01,50,-4.40
2014,11,13,01,51,-4.40
2014,11,13,01,52,-4.30
2014,11,13,01,53,-4.30
2014,11,13,01,54,-4.30
2014,11,13,01,55,-4.30
2014,11,13,01,56,-4.30
2014,11,13,01,57,-4.30
2014,11,13,01,58,-4.30
2014,11,13,01,59,-4.30
2014,11,13,02,00,-4.40
2014,11,13,02,01,-4.40
2014,11,13,02,02,-4.40
2014,11,13,02,03,-4.40
2014,11,13,02,04,-4.40
2014,11,13,02,05,-4.40
2014,11,13,02,06,-4.40
2014,11,13,02,07,-4.40
2014,11,13,02,08,-4.50
2014,11,13,02,09,-4.50
2014,11,13,02,10,-4.50
2014,11,13,02,11,-4.50
2014,11,13,02,12,-4.50
2014,11,13,02,13,-4.40
2014,11,13,02,14,-4.40
2014,11,13,02,15,-4.50
2014,11,13,02,16,-4.40
2014,11,13,02,17,-4.40
2014,11,13,02,18,-4.40
2014,11,13,02,19,-4.40
2014,11,13,02,20,-4.40
2014,11,13,02,21,-4.40
2014,11,13,02,22,-4.40
2014,11,13,02,23,-4.40
2014,11,13,02,24,-4.40
2014,11,13,02,25,-4.40
2014,11,13,02,26,-4.40
2014,11,13,02,27,-4.40
2014,11,13,02,28,-4.40
2014,11,13,02,29,-4.40
2014,11,13,02,30,-4.40
2014,11,13,02,31,-4.40
2014,11,13,02,32,-4.40
2014,11,13,02,33,-4.40
2014,11,13,02,34,-4.40
2014,11,13,02,35,-4.40
2014,11,13,02,36,-4.40
2014,11,13,02,37,-4.40
2014,11,13,02,38,-4.40
2014,11,13,02,39,-4.40
2014,11,13,02,40,-4.40
2014,11,13,02,41,-4.40
2014,11,13,02,42,-4.40
2014,11,13,02,43,-4.50
2014,11,13,02,44,-4.50
2014,11,13,02,45,-4.50
2014,11,13,02,46,-4.50
2014,11,13,02,47,-4.60
2014,11,13,02,48,-4.60
2014,11,13,02,49,-4.60
2014,11,13,02,50,-4.70
2014,11,13,02,51,-4.70
2014,11,13,02,52,-4.70
2014,11,13,02,53,-4.70
2014,11,13,02,54,-4.70
2014,11,13,02,55,-4.70
2014,11,13,02,56,-4.70
2014,11,13,02,57,-4.70
2014,11,13,02,58,-4.70
2014,11,13,02,59,-4.80
2014,11,13,03,00,-4.80
2014,11,13,03,01,-4.70
2014,11,13,03,02,-4.70
2014,11,13,03,03,-4.70
2014,11,13,03,06,-4.80
2014,11,13,03,07,-4.80
2014,11,13,03,08,-4.80
2014,11,13,03,09,-4.80
2014,11,13,03,10,-4.80
2014,11,13,03,11,-4.80
2014,11,13,03,12,-4.80
2014,11,13,03,13,-4.80
2014,11,13,03,14,-4.80
2014,11,13,03,15,-4.80
2014,11,13,03,16,-4.80
2014,11,13,03,17,-4.80
2014,11,13,03,18,-4.80
2014,11,13,03,19,-4.80
2014,11,13,03,20,-4.80
2014,11,13,03,21,-4.80
2014,11,13,03,22,-4.80
2014,11,13,03,23,-4.80
2014,11,13,03,24,-4.80
2014,11,13,03,25,-4.80
2014,11,13,03,26,-4.80
2014,11,13,03,27,-4.80
2014,11,13,03,28,-4.80
2014,11,13,03,29,-4.80
2014,11,13,03,30,-4.80
2014,11,13,03,31,-4.80
2014,11,13,03,32,-4.80
2014,11,13,03,33,-4.80
2014,11,13,03,34,-4.80
2014,11,13,03,35,-4.80
2014,11,13,03,36,-4.80
2014,11,13,03,37,-4.80
2014,11,13,03,38,-4.80
2014,11,13,03,39,-4.80
2014,11,13,03,40,-4.80
2014,11,13,03,41,-4.80
2014,11,13,03,42,-4.80
2014,11,13,03,43,-4.80
2014,11,13,03,44,-4.80
2014,11,13,03,45,-4.80
2014,11,13,03,46,-4.80
2014,11,13,03,47,-4.80
2014,11,13,03,48,-4.80
2014,11,13,03,49,-4.80
2014,11,13,03,50,-4.70
2014,11,13,03,51,-4.70
2014,11,13,03,52,-4.70
2014,11,13,03,53,-4.70
2014,11,13,03,54,-4.70
2014,11,13,03,55,-4.80
2014,11,13,03,56,-4.80
2014,11,13,03,57,-4.80
2014,11,13,03,58,-4.80
2014,11,13,03,59,-4.80
2014,11,13,04,00,-4.80
2014,11,13,04,01,-4.80
2014,11,13,04,02,-4.80
2014,11,13,04,03,-4.70
2014,11,13,04,04,-4.70
2014,11,13,04,05,-4.60
2014,11,13,04,06,-4.50
2014,11,13,04,07,-4.50
2014,11,13,04,08,-4.40
2014,11,13,04,09,-4.30
2014,11,13,04,10,-4.30
2014,11,13,04,11,-4.30
2014,11,13,04,12,-4.30
2014,11,13,04,13,-4.30
2014,11,13,04,14,-4.40
2014,11,13,04,15,-4.40
2014,11,13,04,16,-4.50
2014,11,13,04,17,-4.50
2014,11,13,04,18,-4.50
2014,11,13,04,19,-4.60
2014,11,13,04,20,-4.60
2014,11,13,04,21,-4.60
2014,11,13,04,22,-4.60
2014,11,13,04,23,-4.60
2014,11,13,04,24,-4.60
2014,11,13,04,25,-4.60
2014,11,13,04,26,-4.60
2014,11,13,04,27,-4.70
2014,11,13,04,28,-4.70
2014,11,13,04,29,-4.70
2014,11,13,04,30,-4.70
2014,11,13,04,31,-4.80
2014,11,13,04,32,-4.80
2014,11,13,04,33,-4.80
2014,11,13,04,34,-4.80
2014,11,13,04,35,-4.80
2014,11,13,04,36,-4.80
2014,11,13,04,37,-4.70
2014,11,13,04,38,-4.70
2014,11,13,04,39,-4.70
2014,11,13,04,40,-4.70
2014,11,13,04,41,-4.70
2014,11,13,04,42,-4.60
2014,11,13,04,43,-4.60
2014,11,13,04,44,-4.60
2014,11,13,04,45,-4.60
2014,11,13,04,46,-4.60
2014,11,13,04,47,-4.60
2014,11,13,04,48,-4.60
2014,11,13,04,49,-4.60
2014,11,13,04,50,-4.60
2014,11,13,04,51,-4.60
2014,11,13,04,52,-4.70
2014,11,13,04,53,-4.70
2014,11,13,04,54,-4.70
2014,11,13,04,55,-4.70
2014,11,13,04,56,-4.80
2014,11,13,04,57,-4.80
2014,11,13,04,58,-4.80
2014,11,13,04,59,-4.80
2014,11,13,05,00,-4.90
2014,11,13,05,01,-4.90
2014,11,13,05,02,-4.90
2014,11,13,05,03,-4.90
2014,11,13,05,04,-5.00
2014,11,13,05,05,-5.00
2014,11,13,05,06,-5.00
2014,11,13,05,07,-5.00
2014,11,13,05,08,-5.00
2014,11,13,05,09,-5.00
2014,11,13,05,10,-5.00
2014,11,13,05,11,-4.90
2014,11,13,05,12,-4.90
2014,11,13,05,13,-5.00
2014,11,13,05,14,-4.90
2014,11,13,05,15,-4.90
2014,11,13,05,16,-4.80
2014,11,13,05,17,-4.80
2014,11,13,05,18,-4.70
2014,11,13,05,19,-4.70
2014,11,13,05,20,-4.70
2014,11,13,05,21,-4.60
2014,11,13,05,22,-4.60
2014,11,13,05,23,-4.60
2014,11,13,05,24,-4.50
2014,11,13,05,25,-4.50
2014,11,13,05,26,-4.60
2014,11,13,05,27,-4.60
2014,11,13,05,28,-4.60
2014,11,13,05,29,-4.70
2014,11,13,05,30,-4.70
2014,11,13,05,31,-4.80
2014,11,13,05,32,-4.80
2014,11,13,05,33,-4.80
2014,11,13,05,34,-4.90
2014,11,13,05,35,-4.90
2014,11,13,05,36,-5.00
2014,11,13,05,37,-5.00
2014,11,13,05,38,-5.10
2014,11,13,05,39,-5.10
2014,11,13,05,40,-5.10
2014,11,13,05,41,-5.20
2014,11,13,05,42,-5.20
2014,11,13,05,43,-5.20
2014,11,13,05,44,-5.20
2014,11,13,05,45,-5.20
2014,11,13,05,46,-5.10
2014,11,13,05,47,-5.10
2014,11,13,05,48,-5.10
2014,11,13,05,49,-5.00
2014,11,13,05,50,-5.00
2014,11,13,05,51,-5.00
2014,11,13,05,52,-5.00
2014,11,13,05,53,-5.00
2014,11,13,05,54,-5.00
2014,11,13,05,55,-5.00
2014,11,13,05,56,-5.00
2014,11,13,05,57,-5.00
2014,11,13,05,58,-5.00
2014,11,13,05,59,-5.00
2014,11,13,06,00,-5.00
2014,11,13,06,01,-5.00
2014,11,13,06,02,-5.00
2014,11,13,06,03,-5.00
2014,11,13,06,04,-4.90
2014,11,13,06,05,-4.90
2014,11,13,06,06,-4.90
2014,11,13,06,07,-4.90
2014,11,13,06,08,-4.90
2014,11,13,06,09,-4.90
2014,11,13,06,10,-4.90
2014,11,13,06,11,-5.00
2014,11,13,06,12,-5.00
2014,11,13,06,13,-5.10
2014,11,13,06,14,-5.10
2014,11,13,06,15,-5.10
2014,11,13,06,16,-5.10
2014,11,13,06,17,-5.20
2014,11,13,06,18,-5.20
2014,11,13,06,19,-5.20
2014,11,13,06,20,-5.20
2014,11,13,06,21,-5.20
2014,11,13,06,22,-5.20
2014,11,13,06,23,-5.20
2014,11,13,06,24,-5.20
2014,11,13,06,25,-5.30
2014,11,13,06,26,-5.30
2014,11,13,06,27,-5.30
2014,11,13,06,28,-5.30
2014,11,13,06,29,-5.30
2014,11,13,06,30,-5.30
2014,11,13,06,31,-5.30
2014,11,13,06,32,-5.30
2014,11,13,06,33,-5.30
2014,11,13,06,34,-5.30
2014,11,13,06,35,-5.30
2014,11,13,06,36,-5.30
2014,11,13,06,37,-5.30
2014,11,13,06,38,-5.30
2014,11,13,06,39,-5.30
2014,11,13,06,40,-5.30
2014,11,13,06,41,-5.30
2014,11,13,06,42,-5.30
2014,11,13,06,43,-5.30
2014,11,13,06,44,-5.30
2014,11,13,06,45,-5.30
2014,11,13,06,46,-5.30
2014,11,13,06,47,-5.30
2014,11,13,06,48,-5.30
2014,11,13,06,49,-5.30
2014,11,13,06,50,-5.30
2014,11,13,06,51,-5.30
2014,11,13,06,52,-5.30
2014,11,13,06,53,-5.30
2014,11,13,06,54,-5.30
2014,11,13,06,55,-5.30
2014,11,13,06,56,-5.30
2014,11,13,06,57,-5.30
2014,11,13,06,58,-5.30
2014,11,13,06,59,-5.30
2014,11,13,07,00,-5.30
2014,11,13,07,01,-5.30
2014,11,13,07,02,-5.30
2014,11,13,07,03,-5.30
2014,11,13,07,04,-5.30
2014,11,13,07,05,-5.30
2014,11,13,07,06,-5.20
2014,11,13,07,07,-5.20
2014,11,13,07,08,-5.20
2014,11,13,07,09,-5.30
2014,11,13,07,10,-5.30
2014,11,13,07,11,-5.30
2014,11,13,07,12,-5.30
2014,11,13,07,13,-5.30
2014,11,13,07,14,-5.40
2014,11,13,07,15,-5.40
2014,11,13,07,16,-5.40
2014,11,13,07,17,-5.40
2014,11,13,07,18,-5.40
2014,11,13,07,19,-5.40
2014,11,13,07,20,-5.40
2014,11,13,07,21,-5.40
2014,11,13,07,22,-5.40
2014,11,13,07,23,-5.40
2014,11,13,07,24,-5.40
2014,11,13,07,25,-5.40
2014,11,13,07,26,-5.40
2014,11,13,07,27,-5.40
2014,11,13,07,28,-5.30
2014,11,13,07,29,-5.30
2014,11,13,07,30,-5.30
2014,11,13,07,31,-5.30
2014,11,13,07,32,-5.30
2014,11,13,07,33,-5.30
2014,11,13,07,34,-5.30
2014,11,13,07,35,-5.20
2014,11,13,07,36,-5.20
2014,11,13,07,37,-5.10
2014,11,13,07,38,-5.10
2014,11,13,07,39,-5.10
2014,11,13,07,40,-5.10
2014,11,13,07,41,-5.10
2014,11,13,07,42,-5.10
2014,11,13,07,43,-5.10
2014,11,13,07,44,-5.10
2014,11,13,07,45,-5.10
2014,11,13,07,46,-5.10
2014,11,13,07,47,-5.20
2014,11,13,07,48,-5.20
2014,11,13,07,49,-5.20
2014,11,13,07,50,-5.20
2014,11,13,07,51,-5.20
2014,11,13,07,52,-5.20
2014,11,13,07,53,-5.20
2014,11,13,07,54,-5.20
2014,11,13,07,55,-5.10
2014,11,13,07,56,-5.10
2014,11,13,07,57,-5.10
2014,11,13,07,58,-5.10
2014,11,13,07,59,-5.10
2014,11,13,08,00,-5.10
2014,11,13,08,01,-5.10
2014,11,13,08,02,-5.10
2014,11,13,08,03,-5.10
2014,11,13,08,04,-5.00
2014,11,13,08,05,-5.00
2014,11,13,08,06,-5.00
2014,11,13,08,07,-5.00
2014,11,13,08,08,-4.90
2014,11,13,08,09,-4.90
2014,11,13,08,10,-4.90
2014,11,13,08,11,-4.90
2014,11,13,08,12,-4.90
2014,11,13,08,13,-4.90
2014,11,13,08,14,-4.80
2014,11,13,08,15,-4.80
2014,11,13,08,16,-4.70
2014,11,13,08,17,-4.60
2014,11,13,08,18,-4.60
2014,11,13,08,19,-4.50
2014,11,13,08,20,-4.40
2014,11,13,08,21,-4.40
2014,11,13,08,22,-4.40
2014,11,13,08,23,-4.40
2014,11,13,08,24,-4.30
2014,11,13,08,25,-4.30
2014,11,13,08,26,-4.30
2014,11,13,08,27,-4.30
2014,11,13,08,28,-4.30
2014,11,13,08,29,-4.20
2014,11,13,08,30,-4.20
2014,11,13,08,31,-4.20
2014,11,13,08,32,-4.10
2014,11,13,08,33,-4.10
2014,11,13,08,34,-4.10
2014,11,13,08,35,-4.00
2014,11,13,08,36,-4.00
2014,11,13,08,37,-3.90
2014,11,13,08,38,-3.90
2014,11,13,08,39,-3.90
2014,11,13,08,40,-3.80
2014,11,13,08,41,-3.80
2014,11,13,08,42,-3.80
2014,11,13,08,43,-3.70
2014,11,13,08,44,-3.70
2014,11,13,08,45,-3.60
2014,11,13,08,46,-3.60
2014,11,13,08,47,-3.60
2014,11,13,08,48,-3.50
2014,11,13,08,49,-3.50
2014,11,13,08,50,-3.40
2014,11,13,08,51,-3.40
2014,11,13,08,52,-3.40
2014,11,13,08,53,-3.30
2014,11,13,08,54,-3.30
2014,11,13,08,55,-3.20
2014,11,13,08,56,-3.20
2014,11,13,08,57,-3.20
2014,11,13,08,58,-3.10
2014,11,13,08,59,-3.00
2014,11,13,09,00,-3.00
2014,11,13,09,01,-2.90
2014,11,13,09,02,-2.90
2014,11,13,09,03,-2.90
2014,11,13,09,04,-2.80
2014,11,13,09,05,-2.80
2014,11,13,09,06,-2.80
2014,11,13,09,07,-2.80
2014,11,13,09,08,-2.70
2014,11,13,09,09,-2.70
2014,11,13,09,10,-2.60
2014,11,13,09,11,-2.60
2014,11,13,09,12,-2.50
2014,11,13,09,13,-2.50
2014,11,13,09,14,-2.40
2014,11,13,09,15,-2.40
2014,11,13,09,16,-2.30
2014,11,13,09,17,-2.30
2014,11,13,09,18,-2.20
2014,11,13,09,19,-2.20
2014,11,13,09,20,-2.10
2014,11,13,09,21,-2.00
2014,11,13,09,22,-1.90
2014,11,13,09,23,-1.80
2014,11,13,09,24,-1.80
2014,11,13,09,25,-1.70
2014,11,13,09,26,-1.70
2014,11,13,09,27,-1.60
2014,11,13,09,28,-1.60
2014,11,13,09,29,-1.50
2014,11,13,09,30,-1.40
2014,11,13,09,31,-1.30
2014,11,13,09,32,-1.30
2014,11,13,09,33,-1.20
2014,11,13,09,34,-1.20
2014,11,13,09,35,-1.10
2014,11,13,09,36,-1.10
2014,11,13,09,37,-1.10
2014,11,13,09,38,-1.00
2014,11,13,09,39,-1.00
2014,11,13,09,40,-0.90
2014,11,13,09,41,-0.80
2014,11,13,09,42,-0.80
2014,11,13,09,43,-0.70
2014,11,13,09,44,-0.60
2014,11,13,09,45,-0.50
2014,11,13,09,46,-0.40
2014,11,13,09,47,-0.40
2014,11,13,09,48,-0.30
2014,11,13,09,49,-0.20
2014,11,13,09,50,-0.20
2014,11,13,09,51,-0.10
2014,11,13,09,52,0.00
2014,11,13,09,53,0.00
2014,11,13,09,54,0.10
2014,11,13,09,55,0.20
2014,11,13,09,56,0.30
2014,11,13,09,57,0.40
2014,11,13,09,58,0.50
2014,11,13,09,59,0.60
2014,11,13,10,00,0.60
2014,11,13,10,01,0.60
2014,11,13,10,02,0.70
2014,11,13,10,03,0.70
2014,11,13,10,04,0.70
2014,11,13,10,05,0.80
2014,11,13,10,06,0.80
2014,11,13,10,07,0.90
2014,11,13,10,08,1.00
2014,11,13,10,09,1.10
2014,11,13,10,10,1.10
2014,11,13,10,11,1.20
2014,11,13,10,12,1.30
2014,11,13,10,13,1.30
2014,11,13,10,14,1.30
2014,11,13,10,15,1.40
2014,11,13,10,16,1.60
2014,11,13,10,17,1.70
2014,11,13,10,18,1.90
2014,11,13,10,19,2.00
2014,11,13,10,20,2.20
2014,11,13,10,21,2.30
2014,11,13,10,22,2.40
2014,11,13,10,23,2.50
2014,11,13,10,24,2.70
2014,11,13,10,25,2.80
2014,11,13,10,26,2.90
2014,11,13,10,27,3.10
2014,11,13,10,28,3.20
2014,11,13,10,29,3.30
2014,11,13,10,30,3.50
2014,11,13,10,31,3.60
2014,11,13,10,32,3.70
2014,11,13,10,33,3.70
2014,11,13,10,34,3.90
2014,11,13,10,35,4.00
2014,11,13,10,36,4.10
2014,11,13,10,37,4.20
2014,11,13,10,38,4.30
2014,11,13,10,39,4.40
2014,11,13,10,40,4.50
2014,11,13,10,41,4.60
2014,11,13,10,42,4.70
2014,11,13,10,43,4.80
2014,11,13,10,44,4.80
2014,11,13,10,45,4.90
2014,11,13,10,46,5.00
2014,11,13,10,47,5.10
2014,11,13,10,48,5.10
2014,11,13,10,49,5.20
2014,11,13,10,50,5.30
2014,11,13,10,51,5.30
2014,11,13,10,52,5.40
2014,11,13,10,53,5.50
2014,11,13,10,54,5.50
2014,11,13,10,55,5.60
2014,11,13,10,56,5.50
2014,11,13,10,57,5.50
2014,11,13,10,58,5.40
2014,11,13,10,59,5.40
2014,11,13,11,00,5.40
2014,11,13,11,01,5.40
2014,11,13,11,02,5.40
2014,11,13,11,03,5.40
2014,11,13,11,04,5.40
2014,11,13,11,05,5.50
2014,11,13,11,06,5.60
2014,11,13,11,07,5.60
2014,11,13,11,08,5.60
2014,11,13,11,09,5.70
2014,11,13,11,10,5.70
2014,11,13,11,11,5.70
2014,11,13,11,12,5.60
2014,11,13,11,13,5.60
2014,11,13,11,14,5.60
2014,11,13,11,15,5.70
2014,11,13,11,16,5.70
2014,11,13,11,17,5.60
2014,11,13,11,18,5.60
2014,11,13,11,19,5.60
2014,11,13,11,20,5.60
2014,11,13,11,21,5.60
2014,11,13,11,22,5.60
2014,11,13,11,23,5.70
2014,11,13,11,24,5.70
2014,11,13,11,25,5.80
2014,11,13,11,26,5.80
2014,11,13,11,27,5.80
2014,11,13,11,28,5.80
2014,11,13,11,29,5.80
2014,11,13,11,30,5.80
2014,11,13,11,31,5.80
2014,11,13,11,32,5.80
2014,11,13,11,33,5.90
2014,11,13,11,34,5.90
2014,11,13,11,35,6.00
2014,11,13,11,36,6.10
2014,11,13,11,37,6.10
2014,11,13,11,38,6.10
2014,11,13,11,39,6.10
2014,11,13,11,40,6.10
2014,11,13,11,41,6.00
2014,11,13,11,42,6.00
2014,11,13,11,43,5.90
2014,11,13,11,44,5.80
2014,11,13,11,45,5.80
2014,11,13,11,46,5.80
2014,11,13,11,47,5.80
2014,11,13,11,48,5.80
2014,11,13,11,49,5.90
2014,11,13,11,50,6.00
2014,11,13,11,51,6.00
2014,11,13,11,52,6.10
2014,11,13,11,53,6.10
2014,11,13,11,54,6.20
2014,11,13,11,55,6.20
2014,11,13,11,56,6.30
2014,11,13,11,57,6.30
2014,11,13,11,58,6.30
2014,11,13,11,59,6.30
2014,11,13,12,00,6.30
2014,11,13,12,01,6.30
2014,11,13,12,02,6.20
2014,11,13,12,03,6.30
2014,11,13,12,04,6.20
2014,11,13,12,05,6.20
2014,11,13,12,06,6.20
2014,11,13,12,07,6.30
2014,11,13,12,08,6.30
2014,11,13,12,09,6.40
2014,11,13,12,10,6.40
2014,11,13,12,11,6.50
2014,11,13,12,12,6.50
2014,11,13,12,13,6.50
2014,11,13,12,14,6.60
2014,11,13,12,15,6.50
2014,11,13,12,16,6.50
2014,11,13,12,17,6.50
2014,11,13,12,18,6.60
2014,11,13,12,19,6.60
2014,11,13,12,20,6.70
2014,11,13,12,21,6.70
2014,11,13,12,22,6.70
2014,11,13,12,23,6.70
2014,11,13,12,24,6.70
2014,11,13,12,25,6.80
2014,11,13,12,26,6.80
2014,11,13,12,27,6.90
2014,11,13,12,28,6.90
2014,11,13,12,29,6.90
2014,11,13,12,30,6.90
2014,11,13,12,31,6.90
2014,11,13,12,32,6.90
2014,11,13,12,33,7.00
2014,11,13,12,34,7.00
2014,11,13,12,35,7.00
2014,11,13,12,36,7.10
2014,11,13,12,37,7.10
2014,11,13,12,38,7.20
2014,11,13,12,39,7.20
2014,11,13,12,40,7.20
2014,11,13,12,41,7.20
2014,11,13,12,42,7.20
2014,11,13,12,43,7.10
2014,11,13,12,44,7.10
2014,11,13,12,45,7.00
2014,11,13,12,46,7.00
2014,11,13,12,47,7.00
2014,11,13,12,48,7.00
2014,11,13,12,49,7.00
2014,11,13,12,50,7.00
2014,11,13,12,51,7.00
2014,11,13,12,52,7.00
2014,11,13,12,53,7.10
2014,11,13,12,54,7.10
2014,11,13,12,55,7.10
2014,11,13,12,56,7.10
2014,11,13,12,57,7.10
2014,11,13,12,58,7.00
2014,11,13,12,59,7.10
2014,11,13,13,00,7.10
2014,11,13,13,01,7.10
2014,11,13,13,02,7.10
2014,11,13,13,03,7.10
2014,11,13,13,04,7.10
2014,11,13,13,05,7.10
2014,11,13,13,06,7.10
2014,11,13,13,07,7.20
2014,11,13,13,08,7.20
2014,11,13,13,09,7.30
2014,11,13,13,10,7.40
2014,11,13,13,11,7.40
2014,11,13,13,12,7.30
2014,11,13,13,13,7.20
2014,11,13,13,14,7.20
2014,11,13,13,15,7.20
2014,11,13,13,16,7.20
2014,11,13,13,17,7.20
2014,11,13,13,18,7.10
2014,11,13,13,19,7.00
2014,11,13,13,20,7.00
2014,11,13,13,21,6.90
2014,11,13,13,22,6.90
2014,11,13,13,23,6.80
2014,11,13,13,24,6.80
2014,11,13,13,25,6.70
2014,11,13,13,26,6.70
2014,11,13,13,27,6.70
2014,11,13,13,28,6.70
2014,11,13,13,29,6.80
2014,11,13,13,30,6.80
2014,11,13,13,31,6.90
2014,11,13,13,32,6.90
2014,11,13,13,33,6.90
2014,11,13,13,34,6.80
2014,11,13,13,35,6.80
2014,11,13,13,36,6.70
2014,11,13,13,37,6.70
2014,11,13,13,38,6.70
2014,11,13,13,39,6.70
2014,11,13,13,40,6.80
2014,11,13,13,41,6.80
2014,11,13,13,42,6.80
2014,11,13,13,43,6.80
2014,11,13,13,44,6.80
2014,11,13,13,45,6.80
2014,11,13,13,46,6.80
2014,11,13,13,47,6.80
2014,11,13,13,48,6.80
2014,11,13,13,49,6.80
2014,11,13,13,50,6.70
2014,11,13,13,51,6.70
2014,11,13,13,52,6.70
2014,11,13,13,53,6.70
2014,11,13,13,54,6.70
2014,11,13,13,55,6.70
2014,11,13,13,56,6.70
2014,11,13,13,57,6.70
2014,11,13,13,58,6.80
2014,11,13,13,59,6.80
2014,11,13,14,00,6.70
2014,11,13,14,01,6.70
2014,11,13,14,02,6.70
2014,11,13,14,03,6.60
2014,11,13,14,04,6.60
2014,11,13,14,05,6.60
2014,11,13,14,06,6.60
2014,11,13,14,07,6.60
2014,11,13,14,08,6.60
2014,11,13,14,09,6.70
2014,11,13,14,10,6.80
2014,11,13,14,11,6.80
2014,11,13,14,12,6.80
2014,11,13,14,13,6.90
2014,11,13,14,14,7.00
2014,11,13,14,15,7.10
2014,11,13,14,16,7.10
2014,11,13,14,17,7.10
2014,11,13,14,18,7.10
2014,11,13,14,19,7.10
2014,11,13,14,20,7.10
2014,11,13,14,21,7.10
2014,11,13,14,22,7.10
2014,11,13,14,23,7.10
2014,11,13,14,24,7.10
2014,11,13,14,25,7.10
2014,11,13,14,26,7.10
2014,11,13,14,27,7.10
2014,11,13,14,28,7.10
2014,11,13,14,29,7.10
2014,11,13,14,30,7.10
2014,11,13,14,31,7.00
2014,11,13,14,32,6.90
2014,11,13,14,33,6.90
2014,11,13,14,34,6.90
2014,11,13,14,35,6.90
2014,11,13,14,36,7.00
2014,11,13,14,37,7.00
2014,11,13,14,38,6.90
2014,11,13,14,39,7.00
2014,11,13,14,40,7.10
2014,11,13,14,41,7.20
2014,11,13,14,42,7.20
2014,11,13,14,43,7.30
2014,11,13,14,44,7.40
2014,11,13,14,45,7.40
2014,11,13,14,46,7.40
2014,11,13,14,47,7.40
2014,11,13,14,48,7.20
2014,11,13,14,49,7.20
2014,11,13,14,50,7.10
2014,11,13,14,51,7.00
2014,11,13,14,52,6.90
2014,11,13,14,53,6.80
2014,11,13,14,54,6.80
2014,11,13,14,55,6.70
2014,11,13,14,56,6.60
2014,11,13,14,57,6.50
2014,11,13,14,58,6.40
2014,11,13,14,59,6.30
2014,11,13,15,00,6.10
2014,11,13,15,01,6.00
2014,11,13,15,02,5.90
2014,11,13,15,03,5.80
2014,11,13,15,04,5.70
2014,11,13,15,05,5.70
2014,11,13,15,06,5.60
2014,11,13,15,07,5.60
2014,11,13,15,08,5.50
2014,11,13,15,09,5.40
2014,11,13,15,10,5.40
2014,11,13,15,11,5.30
2014,11,13,15,12,5.10
2014,11,13,15,13,5.00
2014,11,13,15,14,4.90
2014,11,13,15,15,4.80
2014,11,13,15,16,4.70
2014,11,13,15,17,4.60
2014,11,13,15,18,4.50
2014,11,13,15,19,4.30
2014,11,13,15,20,4.20
2014,11,13,15,21,4.00
2014,11,13,15,22,3.90
2014,11,13,15,23,3.80
2014,11,13,15,24,3.60
2014,11,13,15,25,3.50
2014,11,13,15,26,3.40
2014,11,13,15,27,3.30
2014,11,13,15,28,3.30
2014,11,13,15,29,3.20
2014,11,13,15,30,3.10
2014,11,13,15,31,3.00
2014,11,13,15,32,2.90
2014,11,13,15,33,2.90
2014,11,13,15,34,2.80
2014,11,13,15,35,2.70
2014,11,13,15,36,2.70
2014,11,13,15,37,2.60
2014,11,13,15,38,2.50
2014,11,13,15,39,2.50
2014,11,13,15,40,2.40
2014,11,13,15,41,2.40
2014,11,13,15,42,2.30
2014,11,13,15,43,2.30
2014,11,13,15,44,2.20
2014,11,13,15,45,2.10
2014,11,13,15,46,2.10
2014,11,13,15,47,2.00
2014,11,13,15,48,2.00
2014,11,13,15,49,1.90
2014,11,13,15,50,1.80
2014,11,13,15,51,1.80
2014,11,13,15,52,1.70
2014,11,13,15,53,1.70
2014,11,13,15,54,1.70
2014,11,13,15,55,1.60
2014,11,13,15,56,1.50
2014,11,13,15,57,1.40
2014,11,13,15,58,1.30
2014,11,13,15,59,1.30
2014,11,13,16,00,1.30
2014,11,13,16,01,1.30
2014,11,13,16,02,1.20
2014,11,13,16,03,1.10
2014,11,13,16,04,1.00
2014,11,13,16,05,0.90
2014,11,13,16,06,0.80
2014,11,13,16,07,0.80
2014,11,13,16,08,0.70
2014,11,13,16,09,0.70
2014,11,13,16,10,0.60
2014,11,13,16,11,0.60
2014,11,13,16,12,0.60
2014,11,13,16,13,0.50
2014,11,13,16,14,0.50
2014,11,13,16,15,0.40
2014,11,13,16,16,0.40
2014,11,13,16,17,0.40
2014,11,13,16,18,0.40
2014,11,13,16,19,0.30
2014,11,13,16,20,0.30
2014,11,13,16,21,0.30
2014,11,13,16,22,0.20
2014,11,13,16,23,0.20
2014,11,13,16,24,0.20
2014,11,13,16,25,0.10
2014,11,13,16,26,0.10
2014,11,13,16,27,0.00
2014,11,13,16,28,-0.10
2014,11,13,16,29,-0.10
2014,11,13,16,30,-0.20
2014,11,13,16,31,-0.20
2014,11,13,16,32,-0.20
2014,11,13,16,33,-0.20
2014,11,13,16,34,-0.30
2014,11,13,16,35,-0.30
2014,11,13,16,36,-0.30
2014,11,13,16,37,-0.30
2014,11,13,16,38,-0.40
2014,11,13,16,39,-0.40
2014,11,13,16,40,-0.40
2014,11,13,16,41,-0.40
2014,11,13,16,42,-0.50
2014,11,13,16,43,-0.50
2014,11,13,16,44,-0.60
2014,11,13,16,45,-0.60
2014,11,13,16,46,-0.60
2014,11,13,16,47,-0.70
2014,11,13,16,48,-0.70
2014,11,13,16,49,-0.70
2014,11,13,16,50,-0.80
2014,11,13,16,51,-0.80
2014,11,13,16,52,-0.80
2014,11,13,16,53,-0.90
2014,11,13,16,54,-0.90
2014,11,13,16,55,-1.00
2014,11,13,16,56,-1.00
2014,11,13,16,57,-1.10
2014,11,13,16,58,-1.10
2014,11,13,16,59,-1.10
2014,11,13,17,00,-1.20
2014,11,13,17,01,-1.20
2014,11,13,17,02,-1.30
2014,11,13,17,03,-1.30
2014,11,13,17,04,-1.30
2014,11,13,17,05,-1.40
2014,11,13,17,06,-1.40
2014,11,13,17,07,-1.40
2014,11,13,17,08,-1.40
2014,11,13,17,09,-1.50
2014,11,13,17,10,-1.50
2014,11,13,17,11,-1.50
2014,11,13,17,12,-1.50
2014,11,13,17,13,-1.50
2014,11,13,17,14,-1.60
2014,11,13,17,15,-1.60
2014,11,13,17,16,-1.60
2014,11,13,17,17,-1.60
2014,11,13,17,18,-1.60
2014,11,13,17,19,-1.70
2014,11,13,17,20,-1.70
2014,11,13,17,21,-1.70
2014,11,13,17,22,-1.70
2014,11,13,17,23,-1.80
2014,11,13,17,24,-1.80
2014,11,13,17,25,-1.80
2014,11,13,17,26,-1.80
2014,11,13,17,27,-1.90
2014,11,13,17,28,-1.90
2014,11,13,17,29,-1.90
2014,11,13,17,30,-1.90
2014,11,13,17,31,-1.90
2014,11,13,17,32,-1.90
2014,11,13,17,33,-1.90
2014,11,13,17,34,-1.90
2014,11,13,17,35,-1.90
2014,11,13,17,36,-1.90
2014,11,13,17,37,-2.00
2014,11,13,17,38,-2.00